SCP
0 -0 0 -0 0 0 0 0 0 0 0 0 0 -0 0 0 -0 -0 -0 -0 -0 -0 0 -0 0 0 -0 0 0 0 0 0
-0 -0 0 -0 -0 -0 0 0 0 0 0 0 0 -0 0 -0 -0 -0 0 0 -0 -0 0 0 0 0 0 0 -0 0 0 0
0 0 0 0 0 0 -0 -0 0 0 0 -0 -0 -0 0 0 0 -0 0 -0 -0 -0 0 0 0 0 0 0 0 0 0 0
0 0 0 0 0 -0 0 -0 0 0 0 0 0 0 0 1 0 0 0 -0 -0 -0 0 0 0 0 0 1 0 0 0 0
0 0 0 0 0 0 0 0 0 0 0 0 0 2 3 2 1 1 1 1 0 0 0 0 0 0 1 1 0 0 0 0
0 0 0 -0 -0 0 0 0 0 0 0 0 -0 1 2 1 0 1 0 0 0 0 0 0 0 0 1 1 1 1 1 0
0 0 -0 0 -0 -0 0 0 0 0 0 0 0 1 0 1 0 0 0 0 0 0 0 0 0 0 0 1 1 1 0 0
0 0 0 -0 -0 -0 -0 -0 0 0 0 1 1 1 0 0 0 0 0 0 0 0 0 0 0 0 0 1 1 1 0 0
0 0 -0 -0 -0 -0 -0 -0 0 0 0 0 0 0 0 0 0 0 0 0 0 0 0 0 2 1 1 0 0 0 0 0
0 0 0 -0 -0 -0 0 -0 0 0 1 1 1 0 0 0 0 0 0 0 0 0 0 0 0 1 2 1 0 1 1 1
0 0 0 -0 0 -0 0 -0 0 0 1 1 0 0 0 0 0 0 0 0 0 0 0 0 0 0 1 1 2 2 1 1
0 0 0 -0 0 0 0 -0 -0 0 1 0 0 0 0 0 0 0 0 0 0 0 0 0 0 0 0 0 1 0 0 0
0 0 0 0 0 0 -0 -0 -0 0 0 0 0 0 0 0 0 0 0 0 0 0 0 0 0 0 0 0 0 0 0 0
0 0 0 0 0 -0 0 0 -0 -0 0 0 0 0 0 0 0 0 0 0 0 0 0 0 0 0 0 0 0 0 0 0
0 0 0 0 0 0 0 -0 -0 -0 -0 -0 0 0 0 0 0 0 0 0 0 0 0 0 0 0 0 0 0 0 0 0
0 0 0 0 0 0 0 0 -0 -0 -0 0 0 0 0 0 0 0 0 0 0 0 0 0 0 0 0 0 0 0 0 0
0 0 0 0 0 0 0 0 -0 -0 0 0 0 0 0 0 0 0 0 0 0 0 0 0 0 0 0 0 0 0 0 0
-0 0 0 0 0 0 0 0 0 0 0 0 0 0 0 0 0 0 0 0 0 0 0 0 0 0 0 0 0 0 0 0
-0 0 0 0 0 0 0 0 0 0 0 0 0 0 0 0 0 0 0 0 0 0 0 0 0 0 0 0 0 0 0 0
Wind_Speed_500mb
16 12 3 18 7 17 11 13 10 15 16 21 15 17 55 73 76 84 89 87 101 107 113 110 104 98 89 77 74 80 89 82
20 14 14 3 12 7 5 10 24 10 12 11 14 11 38 47 69 82 90 80 97 100 112 112 106 99 92 79 71 77 83 87
11 5 7 19 14 10 8 11 18 22 18 16 17 9 27 30 67 88 88 95 96 104 109 114 107 101 96 89 78 72 77 87
15 36 21 17 7 3 10 17 12 8 17 17 14 19 26 32 55 65 85 97 94 104 103 96 105 104 99 95 88 78 73 76
21 15 14 9 24 16 17 7 17 15 26 4 15 19 42 36 27 24 20 42 72 86 93 103 102 108 103 99 94 87 79 70
9 16 17 19 27 24 11 10 17 19 24 14 15 14 25 56 42 34 22 15 36 42 80 107 108 109 107 100 95 93 87 81
15 22 15 21 29 27 24 25 15 35 29 22 16 25 8 6 61 39 23 21 11 27 52 79 100 92 105 103 97 96 91 87
13 19 14 30 30 19 12 22 12 18 5 9 4 63 35 9 17 50 37 26 16 4 12 77 96 96 85 96 100 96 92 87
17 13 29 25 5 6 12 16 17 11 14 14 7 16 25 29 25 21 25 24 22 24 5 45 91 100 102 96 94 98 91 87
17 6 14 14 4 5 19 26 30 31 20 14 10 30 38 27 38 30 31 31 24 30 3 28 58 79 95 93 92 92 93 91
8 10 25 25 18 4 10 14 36 33 10 15 15 25 41 37 33 26 25 31 23 20 15 10 19 33 33 53 61 75 77 78
3 5 8 7 24 32 28 4 36 48 34 8 27 8 5 26 32 37 30 31 25 29 27 8 13 19 33 44 37 26 51 56
7 9 13 11 52 40 8 8 22 32 25 37 18 10 17 28 32 30 31 31 30 20 28 31 30 21 15 26 27 44 29 46
6 7 14 25 15 8 5 2 32 33 23 26 32 25 31 30 33 36 37 37 31 29 24 35 40 28 33 34 25 24 23 17
10 7 7 8 2 16 17 21 14 26 14 18 26 26 29 24 31 35 35 37 36 37 36 34 34 33 30 27 12 8 7 11
4 3 9 14 7 9 12 12 27 31 25 32 20 37 43 39 39 37 34 35 33 34 35 36 30 29 34 29 13 16 17 13
9 19 26 25 2 8 11 9 25 33 35 38 34 29 39 38 33 26 27 26 30 33 37 40 37 29 29 31 34 31 26 23
8 15 19 16 20 2 14 15 22 41 42 31 34 36 28 30 34 30 27 25 27 26 25 31 36 37 33 24 19 18 22 31
17 27 17 16 5 18 17 12 16 32 42 51 38 42 40 38 20 18 15 22 17 16 13 14 13 16 20 22 22 18 17 18
Wind_Direction_500mb
301 344 36 302 213 205 224 244 284 250 281 293 251 248 201 197 196 193 195 192 195 196 199 204 204 206 206 206 209 207 202 202
300 338 309 222 273 342 347 252 265 254 254 235 311 195 197 191 194 196 197 196 193 193 198 206 209 209 209 209 208 205 207 206
355 315 307 333 324 329 273 182 244 276 267 212 251 218 172 215 204 197 194 196 194 195 198 207 209 210 211 209 209 206 209 210
258 280 259 223 67 81 347 308 287 214 259 281 190 152 141 79 227 222 199 195 199 194 195 194 204 210 213 213 211 210 208 211
339 335 19 34 329 321 298 287 264 251 257 240 63 10 114 68 61 166 218 214 197 191 193 195 202 211 214 215 214 213 210 210
219 254 298 296 317 309 296 292 284 283 276 243 117 87 73 110 88 98 147 190 191 199 204 198 201 209 216 217 218 215 214 214
298 298 291 304 313 316 312 275 232 289 298 267 137 143 123 189 128 109 116 111 169 233 228 206 201 203 215 219 219 218 216 217
284 298 314 309 301 292 343 345 328 296 283 11 61 121 114 92 59 106 108 87 73 314 271 207 207 204 208 220 222 221 220 222
269 14 330 299 292 337 271 49 331 313 332 159 39 83 105 124 147 141 77 126 104 37 356 197 206 210 212 218 223 223 222 224
267 346 263 252 296 40 341 32 4 342 10 36 28 84 85 113 113 115 107 87 152 267 193 172 189 196 209 212 217 223 224 226
200 198 270 301 291 316 62 25 354 336 16 54 53 29 38 54 72 81 78 103 93 166 302 313 165 141 179 202 209 215 217 222
159 188 261 292 331 327 295 330 2 1 8 331 11 73 351 52 68 68 68 76 80 107 187 327 41 129 149 143 130 159 208 216
264 222 263 339 316 313 162 213 43 359 23 47 59 74 91 70 72 79 77 71 69 79 80 66 66 95 177 192 226 290 235 234
306 202 254 4 1 34 320 232 92 15 28 65 92 92 87 84 83 77 79 83 77 80 67 66 66 76 92 111 134 178 188 191
191 249 318 10 158 311 317 294 134 123 99 102 113 86 84 94 87 82 81 79 80 73 69 62 64 69 78 69 71 66 87 101
28 285 273 311 336 230 282 260 127 127 122 107 51 88 93 91 92 85 83 79 72 67 62 57 57 64 79 81 83 92 88 82
255 279 287 272 212 168 246 235 158 148 134 129 124 97 98 92 84 87 76 66 54 52 51 51 56 70 81 88 89 102 89 70
229 282 247 263 282 220 255 239 168 134 125 136 136 123 105 96 96 93 86 70 61 52 50 56 51 55 51 57 71 74 83 78
242 249 277 295 180 94 70 170 147 131 129 120 116 111 121 121 108 110 107 100 67 61 53 60 61 64 71 69 55 57 85 89
Wind_Speed_850mb
16 12 3 18 7 17 11 13 10 15 16 21 15 17 55 73 76 84 89 87 101 107 113 110 104 98 89 77 74 80 89 82
20 14 14 3 12 7 5 10 24 10 12 11 14 11 38 47 69 82 90 80 97 100 112 112 106 99 92 79 71 77 83 87
11 5 7 19 14 10 8 11 18 22 18 16 17 9 27 30 67 88 88 95 96 104 109 114 107 101 96 89 78 72 77 87
15 36 21 17 7 3 10 17 12 8 17 17 14 19 26 32 55 65 85 97 94 104 103 96 105 104 99 95 88 78 73 76
21 15 14 9 24 16 17 7 17 15 26 4 15 19 42 36 27 24 20 42 72 86 93 103 102 108 103 99 94 87 79 70
9 16 17 19 27 24 11 10 17 19 24 14 15 14 25 56 42 34 22 15 36 42 80 107 108 109 107 100 95 93 87 81
15 22 15 21 29 27 24 25 15 35 29 22 16 25 8 6 61 39 23 21 11 27 52 79 100 92 105 103 97 96 91 87
13 19 14 30 30 19 12 22 12 18 5 9 4 63 35 9 17 50 37 26 16 4 12 77 96 96 85 96 100 96 92 87
17 13 29 25 5 6 12 16 17 11 14 14 7 16 25 29 25 21 25 24 22 24 5 45 91 100 102 96 94 98 91 87
17 6 14 14 4 5 19 26 30 31 20 14 10 30 38 27 38 30 31 31 24 30 3 28 58 79 95 93 92 92 93 91
8 10 25 25 18 4 10 14 36 33 10 15 15 25 41 37 33 26 25 31 23 20 15 10 19 33 33 53 61 75 77 78
3 5 8 7 24 32 28 4 36 48 34 8 27 8 5 26 32 37 30 31 25 29 27 8 13 19 33 44 37 26 51 56
7 9 13 11 52 40 8 8 22 32 25 37 18 10 17 28 32 30 31 31 30 20 28 31 30 21 15 26 27 44 29 46
6 7 14 25 15 8 5 2 32 33 23 26 32 25 31 30 33 36 37 37 31 29 24 35 40 28 33 34 25 24 23 17
10 7 7 8 2 16 17 21 14 26 14 18 26 26 29 24 31 35 35 37 36 37 36 34 34 33 30 27 12 8 7 11
4 3 9 14 7 9 12 12 27 31 25 32 20 37 43 39 39 37 34 35 33 34 35 36 30 29 34 29 13 16 17 13
9 19 26 25 2 8 11 9 25 33 35 38 34 29 39 38 33 26 27 26 30 33 37 40 37 29 29 31 34 31 26 23
8 15 19 16 20 2 14 15 22 41 42 31 34 36 28 30 34 30 27 25 27 26 25 31 36 37 33 24 19 18 22 31
17 27 17 16 5 18 17 12 16 32 42 51 38 42 40 38 20 18 15 22 17 16 13 14 13 16 20 22 22 18 17 18
Wind_Direction_850mb
301 344 36 302 213 205 224 244 284 250 281 293 251 248 201 197 196 193 195 192 195 196 199 204 204 206 206 206 209 207 202 202
300 338 309 222 273 342 347 252 265 254 254 235 311 195 197 191 194 196 197 196 193 193 198 206 209 209 209 209 208 205 207 206
355 315 307 333 324 329 273 182 244 276 267 212 251 218 172 215 204 197 194 196 194 195 198 207 209 210 211 209 209 206 209 210
258 280 259 223 67 81 347 308 287 214 259 281 190 152 141 79 227 222 199 195 199 194 195 194 204 210 213 213 211 210 208 211
339 335 19 34 329 321 298 287 264 251 257 240 63 10 114 68 61 166 218 214 197 191 193 195 202 211 214 215 214 213 210 210
219 254 298 296 317 309 296 292 284 283 276 243 117 87 73 110 88 98 147 190 191 199 204 198 201 209 216 217 218 215 214 214
298 298 291 304 313 316 312 275 232 289 298 267 137 143 123 189 128 109 116 111 169 233 228 206 201 203 215 219 219 218 216 217
284 298 314 309 301 292 343 345 328 296 283 11 61 121 114 92 59 106 108 87 73 314 271 207 207 204 208 220 222 221 220 222
269 14 330 299 292 337 271 49 331 313 332 159 39 83 105 124 147 141 77 126 104 37 356 197 206 210 212 218 223 223 222 224
267 346 263 252 296 40 341 32 4 342 10 36 28 84 85 113 113 115 107 87 152 267 193 172 189 196 209 212 217 223 224 226
200 198 270 301 291 316 62 25 354 336 16 54 53 29 38 54 72 81 78 103 93 166 302 313 165 141 179 202 209 215 217 222
159 188 261 292 331 327 295 330 2 1 8 331 11 73 351 52 68 68 68 76 80 107 187 327 41 129 149 143 130 159 208 216
264 222 263 339 316 313 162 213 43 359 23 47 59 74 91 70 72 79 77 71 69 79 80 66 66 95 177 192 226 290 235 234
306 202 254 4 1 34 320 232 92 15 28 65 92 92 87 84 83 77 79 83 77 80 67 66 66 76 92 111 134 178 188 191
191 249 318 10 158 311 317 294 134 123 99 102 113 86 84 94 87 82 81 79 80 73 69 62 64 69 78 69 71 66 87 101
28 285 273 311 336 230 282 260 127 127 122 107 51 88 93 91 92 85 83 79 72 67 62 57 57 64 79 81 83 92 88 82
255 279 287 272 212 168 246 235 158 148 134 129 124 97 98 92 84 87 76 66 54 52 51 51 56 70 81 88 89 102 89 70
229 282 247 263 282 220 255 239 168 134 125 136 136 123 105 96 96 93 86 70 61 52 50 56 51 55 51 57 71 74 83 78
242 249 277 295 180 94 70 170 147 131 129 120 116 111 121 121 108 110 107 100 67 61 53 60 61 64 71 69 55 57 85 89